Airfield :
LOGIN :

Register | Disclaimer

   EN    FR    IT 

 










Legend :    VFR   Marginal VFR   IFR   Intensive IFR   Very Intensive IFR
Visi :
Ceiling :
>= 8 km
>= 3000ft
5 to 8 km
1000 to 3000 ft
1500m to 5 km
500 to 1000 ft
800 to 1500m
200 to 500 ft
< 800m
< 200 ft
Symbols :   Thunderstorms  Fog  Heavy snow  Heavy precipitations  Wind > 20 kt
SIGMETs :     Misc.  Thunderstorms  Icing  Turbulence  Mountain Waves  Volcanic Ashes






- Airport Elevation : 36 ft
- IATA code : LTQ


LFAT - Le Touquet

CURRENT METAR :
  • 022130Z AUTO 00000KT CAVOK 16/09 Q1013

EXPIRED METARs :
  • 022100Z AUTO 00000KT CAVOK 17/09 Q1013
  • 022030Z AUTO VRB02KT CAVOK 18/09 Q1014
  • 022000Z AUTO VRB01KT CAVOK 19/08 Q1014
  • 021930Z AUTO 04005KT CAVOK 20/08 Q1014
  • 021900Z AUTO 04005KT CAVOK 21/07 Q1014

Expired Forecast.
ATIS : +33 3 21 06 62 84



MET'MAP, your aeronautical weather chart ! - Copyright ORBIFLY December 2007 - Disclaimer

ORBIFLY MET'MAP TEAM :

Programming & Development : Alexandra Zaïnal
Concept & original design : Baudouin d'Aumeries
Assistance for programming : Marc-Olivier Méhu
Technical & hardware support : Manuel Goepfert

Contact : metmap@orbifly.com




SOURCES & CREDITS :

   NOAA